Regional Weather Roundup
Issued by NWS Little Rock, AR

Home | Current Version | Previous Version | Graphics & Text | Print | Product List | Glossary On
Versions: 1 2 3 4 5 6 7 8 9 10 11 12 13 14 15 16 17 18 19 20 21 22 23 24 25 26 27 28 29 30 31 32 33 34 35 36 37 38 39 40 41 42 43 44 45 46 47 48 49 50
000
ASUS44 KLZK 011005
RWRLZK

WEATHER ROUNDUP FOR ARKANSAS
NATIONAL WEATHER SERVICE LITTLE ROCK AR
400 AM CST SUN FEB 01 2015

NOTE: "FAIR" INDICATES FEW OR NO CLOUDS BELOW 12,000 FEET WITH NO
SIGNIFICANT WEATHER AND/OR OBSTRUCTIONS TO VISIBILITY.

ARZ001-003-010-029-011100-
NORTHWEST ARKANSAS

CITY           SKY/WX    TMP DP  RH WIND       PRES   REMARKS
FAYETTEVILLE   LGT RAIN  42  42 100 S3        29.79R FOG
FORT SMITH     LGT RAIN  40  38  93 E7        29.82F FOG
HARRISON       LGT RAIN  43  42  97 S10G21    29.75F
BENTONVILLE    CLOUDY    43  37  81 SW7       29.79F
ROGERS         LGT RAIN  41  41 100 SW9       29.78F FOG
SILOAM SPGS    CLOUDY    41  34  75 SW10      29.79F
HIGHFILL       CLOUDY    41  40  96 SW8       29.77F FOG
$$

ARZ004-005-016-011100-
NORTH CENTRAL ARKANSAS

CITY           SKY/WX    TMP DP  RH WIND       PRES   REMARKS
BATESVILLE     CLOUDY    41  36  81 SE6       29.85F
FLIPPIN        CLOUDY    41  36  81 S5        29.79F
MTN HOME       HVY RAIN  39  38  96 SE6       29.78F FOG
$$

ARZ040-041-011100-
WEST CENTRAL ARKANSAS

CITY           SKY/WX    TMP DP  RH WIND       PRES   REMARKS
MENA           CLOUDY    52  50  93 S13G24    29.79F
MOUNT IDA      LGT RAIN  50  45  83 MISG      29.80F
$$

ARZ009-017-025-026-028-011100-
NORTHEAST ARKANSAS

CITY           SKY/WX    TMP DP  RH WIND       PRES   REMARKS
CORNING        LGT RAIN  43  36  75 SE3       29.89F
JONESBORO      LGT RAIN  44  34  67 S6        29.89F
NEWPORT        LGT RAIN  44  39  82 S13       29.89F
WALNUT RIDGE   CLOUDY    43  34  70 S12       29.87F
BLYTHEVILLE    CLOUDY    49  29  46 S12       29.93F
$$

ARZ022-023-033-042-044-011100-
CENTRAL ARKANSAS

CITY           SKY/WX    TMP DP  RH WIND       PRES   REMARKS
LITTLE ROCK    LGT RAIN  48  42  80 S8        29.87F
N LITTLE ROCK    N/A     45  42  89 S8        29.87F
JACKSONVILLE   LGT RAIN  45  39  81 S6        29.86F
HOT SPRINGS    LGT RAIN  46  42  86 E5        29.85F
RUSSELLVILLE   LGT RAIN  41  38  89 SE5       29.82F
CLINTON        LGT RAIN  39  37  93 CALM      29.87F
$$

ARZ036-011100-
EAST ARKANSAS

CITY           SKY/WX    TMP DP  RH WIND       PRES   REMARKS
WEST MEMPHIS   CLOUDY    50  31  48 S15       29.93F
$$

ARZ050-053-066-070-073-011100-
SOUTHWEST ARKANSAS

CITY           SKY/WX    TMP DP  RH WIND       PRES   REMARKS
ARKADELPHIA    PTSUNNY   46  45  97 CALM      29.87F
CAMDEN         LGT RAIN  54  48  82 MISG      29.90F
TEXARKANA      CLOUDY    55  50  83 S15G22    29.86F
EL DORADO      CLOUDY    54  51  90 S12       29.91F
DE QUEEN       HVY RAIN  47  46  97 E6        29.83F FOG
$$

ARZ056-057-069-011100-
SOUTHEAST ARKANSAS

CITY           SKY/WX    TMP DP  RH WIND       PRES   REMARKS
PINE BLUFF     LGT RAIN  51  46  83 S18G25    29.90F
STUTTGART      CLOUDY    48  39  71 S17       29.90F
MONTICELLO     LGT RAIN  50  47  89 S9        29.94F

$$




USA.gov is the U.S. government's official web portal to all federal, state and local government web resources and services.